Погода в Сантарене

Бразилия     2°27′24″S   54°43′04″W
темп.,
°C
ветер,
м/с
пор.,
м/с
влажн.,
%
обл.,
%
осадки,
мм/ч
давл.,
гПа
погр.,
м
22 мая, вс
вс2200:00+22юв11978 0.0 101721
03:00+22юв119789 0.0 101518
06:00+21вюв119812 0.0 101521
09:00+25в238814 0.0 1017371
12:00+30в245720 0.0 10161420
15:00+27вюв0183100 1.4 1013270
18:00+25зюз1189100 0.7 101211
21:00+24всв1189100 0.7 101412
23 мая, пн
пн2300:00+24ссв1190100 0.0 101416
03:00+23всв009361 0.0 101212
06:00+22в119621 0.0 101318
09:00+27в247468 0.0 1015465
12:00+30всв245916 0.1 10141228
15:00+30всв236520 1.0 1011988
18:00+25вюв129265 2.6 101128
21:00+23в1296100 5.5 101325
24 мая, вт
вт2400:00+23в1497100 0.2 1014101
03:00+22всв2998100 1.3 1012293
06:00+22всв21098100 0.0 1012412
09:00+24всв388951 0.0 1015570
12:00+28в357071 0.0 1014871
15:00+30всв356052 0.1 10111385
18:00+27вюв12795 0.1 101033
21:00+24в118983 0.1 101225
25 мая, ср
ср2500:00+23вюв17935 0.0 1013212
03:00+22всв28968 0.0 1012304
06:00+22всв179821 0.0 1013291
09:00+26всв378032 0.0 1015661
12:00+29всв356574 0.1 10141184
15:00+30в35625 0.6 10111077
18:00+25в258999 0.8 1011102
21:00+24в119312 1.0 101323
26 мая, чт
чт2600:00+24всв1193100 0.0 101439
03:00+23всв1395100 0.0 101293
06:00+23всв289527 0.4 1013237
09:00+25всв37845 0.6 1015479
12:00+30в366118 0.1 10141261
15:00+30в356110 0.9 10111156
18:00+25в27935 1.3 1011171
21:00+23в18975 1.7 1013204